MQT83M LSZH-LFMN

Flight info

Callsign MQT83M
Flight time 2h 33m
Altitude 15000
Route VEBIT T53 GERSA/N0185F150 N850 ODINA M727 SRN M858 ITCAP M859 LAGEN Q712 ENOBA Z185 BORDI
Aircraft AEST/L-SBDFGRY/S

Departure

Time 2026-05-04 21:52
Airport Zürich Airport (LSZH)

Arrival

Time 2026-05-05 00:25
Airport Nice-Côte d'Azur Airport (LFMN)
Time Latitude Longitude Altitude Speed Heading
2026-05-04 20:56 47.45399 8.57269 1392 ft 0 kts
2026-05-04 21:49 47.45402 8.57269 1392 ft 3 kts
2026-05-04 21:49 47.45433 8.57236 1400 ft 7 kts 299°
2026-05-04 21:49 47.45468 8.57201 1396 ft 6 kts 331°
2026-05-04 21:50 47.45499 8.57157 1399 ft 7 kts 282°
2026-05-04 21:50 47.45508 8.57054 1392 ft 10 kts 275°
2026-05-04 21:50 47.45553 8.57014 1392 ft 8 kts
2026-05-04 21:50 47.45586 8.57018 1395 ft 4 kts
2026-05-04 21:51 47.45658 8.57027 1393 ft 14 kts
2026-05-04 21:51 47.45751 8.57014 1391 ft 13 kts 325°
2026-05-04 21:51 47.45777 8.56904 1391 ft 14 kts 277°
2026-05-04 21:51 47.45820 8.56349 1395 ft 88 kts 276°
2026-05-04 21:52 47.45865 8.55309 1448 ft 109 kts 273°
2026-05-04 21:52 47.45913 8.54162 1627 ft 123 kts 271°
2026-05-04 21:52 47.45907 8.52840 1968 ft 129 kts 268°
2026-05-04 21:52 47.45858 8.51539 2342 ft 129 kts 266°
2026-05-04 21:53 47.45811 8.50216 2667 ft 127 kts 266°
2026-05-04 21:53 47.45832 8.48907 2933 ft 130 kts 275°
2026-05-04 21:53 47.45810 8.47609 3296 ft 123 kts 261°
2026-05-04 21:53 47.45646 8.46341 3510 ft 130 kts 260°
2026-05-04 21:54 47.45464 8.45033 3820 ft 127 kts 249°
2026-05-04 21:54 47.44977 8.43933 4036 ft 133 kts 224°
2026-05-04 21:54 47.44222 8.43163 4331 ft 130 kts 207°
2026-05-04 21:54 47.43435 8.42547 4647 ft 129 kts 214°
2026-05-04 21:55 47.42721 8.41699 4882 ft 133 kts 224°
2026-05-04 21:55 47.42115 8.40700 5194 ft 129 kts 231°
2026-05-04 21:55 47.41589 8.39615 5418 ft 131 kts 233°
2026-05-04 21:55 47.41052 8.38531 5676 ft 130 kts 230°
2026-05-04 21:56 47.40502 8.37478 5914 ft 130 kts 230°
2026-05-04 21:56 47.39944 8.36425 6131 ft 130 kts 227°
2026-05-04 21:56 47.39404 8.35388 6359 ft 129 kts 231°
2026-05-04 21:56 47.38900 8.34283 6547 ft 130 kts 232°
2026-05-04 21:57 47.38409 8.33163 6760 ft 130 kts 234°
2026-05-04 21:57 47.37947 8.32011 6939 ft 131 kts 240°
2026-05-04 21:57 47.37591 8.30775 7116 ft 131 kts 246°
2026-05-04 21:57 47.37238 8.29545 7297 ft 130 kts 243°
2026-05-04 21:58 47.36864 8.28327 7461 ft 130 kts 241°
2026-05-04 21:58 47.36475 8.27120 7644 ft 131 kts 245°
2026-05-04 21:58 47.36170 8.25859 7840 ft 130 kts 242°
2026-05-04 21:58 47.35723 8.24703 8021 ft 129 kts 234°
2026-05-04 21:59 47.35244 8.23600 8199 ft 127 kts 234°
2026-05-04 21:59 47.34751 8.22510 8341 ft 128 kts 234°
2026-05-04 21:59 47.34315 8.21363 8491 ft 128 kts 240°
2026-05-04 21:59 47.33911 8.20191 8654 ft 128 kts 238°
2026-05-04 22:00 47.33466 8.19052 8802 ft 128 kts 236°
2026-05-04 22:00 47.33053 8.17893 8942 ft 128 kts 241°
2026-05-04 22:00 47.32675 8.16711 9073 ft 127 kts 241°
2026-05-04 22:00 47.32308 8.15522 9184 ft 128 kts 243°
2026-05-04 22:01 47.31939 8.14332 9322 ft 127 kts 242°
2026-05-04 22:01 47.31530 8.13168 9424 ft 128 kts 239°
2026-05-04 22:01 47.31132 8.11996 9552 ft 127 kts 239°
2026-05-04 22:01 47.30694 8.10876 9664 ft 126 kts 236°
2026-05-04 22:02 47.30230 8.09759 9744 ft 128 kts 232°
2026-05-04 22:02 47.29756 8.08651 9847 ft 128 kts 241°
2026-05-04 22:02 47.29362 8.07464 9936 ft 129 kts 240°
2026-05-04 22:02 47.28964 8.06292 10024 ft 128 kts 239°
2026-05-04 22:03 47.28529 8.05093 9996 ft 137 kts 236°
2026-05-04 22:03 47.27869 8.04139 10093 ft 134 kts 204°
2026-05-04 22:03 47.26966 8.04057 10150 ft 136 kts 164°
2026-05-04 22:03 47.26247 8.04982 10170 ft 144 kts 121°
2026-05-04 22:04 47.26109 8.06459 10242 ft 150 kts 91°
2026-05-04 22:04 47.26240 8.07974 10372 ft 150 kts 87°
2026-05-04 22:04 47.26359 8.09529 10414 ft 155 kts 88°
2026-05-04 22:04 47.26432 8.11095 10546 ft 151 kts 93°
2026-05-04 22:05 47.26467 8.12646 10609 ft 154 kts 95°
2026-05-04 22:05 47.26454 8.14231 10666 ft 154 kts 97°
2026-05-04 22:05 47.26416 8.15789 10777 ft 152 kts 99°
2026-05-04 22:05 47.26324 8.17352 10818 ft 154 kts 100°
2026-05-04 22:06 47.26231 8.18916 10910 ft 152 kts 100°
2026-05-04 22:06 47.26140 8.20472 10977 ft 153 kts 100°
2026-05-04 22:06 47.26043 8.22036 11029 ft 154 kts 101°
2026-05-04 22:06 47.25953 8.23598 11102 ft 153 kts 100°
2026-05-04 22:07 47.25867 8.25162 11155 ft 154 kts 99°
2026-05-04 22:07 47.25798 8.26737 11216 ft 154 kts 98°
2026-05-04 22:07 47.25747 8.28319 11259 ft 155 kts 97°
2026-05-04 22:07 47.25708 8.29898 11316 ft 154 kts 98°
2026-05-04 22:08 47.25637 8.31473 11345 ft 155 kts 96°
2026-05-04 22:08 47.25612 8.33055 11392 ft 154 kts 94°
2026-05-04 22:08 47.25574 8.34635 11437 ft 155 kts 98°
2026-05-04 22:08 47.25508 8.36218 11475 ft 155 kts 97°
2026-05-04 22:09 47.25431 8.37796 11527 ft 155 kts 99°
2026-05-04 22:09 47.25312 8.39372 11551 ft 155 kts 100°
2026-05-04 22:09 47.25215 8.40948 11596 ft 154 kts 98°
2026-05-04 22:09 47.25142 8.42528 11632 ft 155 kts 98°
2026-05-04 22:10 47.25053 8.44117 11675 ft 156 kts 103°
2026-05-04 22:10 47.24651 8.45579 11680 ft 156 kts 134°
2026-05-04 22:10 47.23787 8.46437 11742 ft 146 kts 161°
2026-05-04 22:10 47.22894 8.47024 11883 ft 137 kts 163°
2026-05-04 22:11 47.22035 8.47581 11923 ft 136 kts 159°
2026-05-04 22:11 47.21165 8.48192 11903 ft 140 kts 158°
2026-05-04 22:11 47.20288 8.48826 11914 ft 141 kts 159°
2026-05-04 22:11 47.19416 8.49465 11956 ft 140 kts 158°
2026-05-04 22:12 47.18547 8.50108 11971 ft 140 kts 159°
2026-05-04 22:12 47.17664 8.50723 11985 ft 140 kts 160°
2026-05-04 22:12 47.16783 8.51327 12017 ft 139 kts 160°
2026-05-04 22:12 47.15859 8.51749 12019 ft 140 kts 175°
2026-05-04 22:13 47.14902 8.51910 12070 ft 136 kts 180°
2026-05-04 22:13 47.13964 8.52006 12095 ft 136 kts 180°
2026-05-04 22:13 47.13014 8.52074 12080 ft 137 kts 181°
2026-05-04 22:13 47.12069 8.52186 12116 ft 135 kts 178°
2026-05-04 22:14 47.11130 8.52349 12124 ft 137 kts 176°
2026-05-04 22:14 47.10191 8.52649 12123 ft 139 kts 171°
2026-05-04 22:14 47.09244 8.52875 12173 ft 137 kts 179°
2026-05-04 22:14 47.08297 8.52919 12189 ft 136 kts 184°
2026-05-04 22:15 47.07351 8.52980 12190 ft 137 kts 174°
2026-05-04 22:15 47.06407 8.53253 12195 ft 138 kts 178°
2026-05-04 22:15 47.05457 8.53242 12214 ft 136 kts 190°
2026-05-04 22:15 47.04534 8.52939 12211 ft 137 kts 201°
2026-05-04 22:16 47.03658 8.52407 12214 ft 135 kts 210°
2026-05-04 22:16 47.02918 8.51568 12173 ft 136 kts 227°
2026-05-04 22:16 47.02384 8.50402 12113 ft 140 kts 244°
2026-05-04 22:16 47.02113 8.48994 12047 ft 148 kts 261°
2026-05-04 22:17 47.02163 8.47475 12028 ft 151 kts 279°
2026-05-04 22:17 47.02534 8.46023 12000 ft 155 kts 294°
2026-05-04 22:17 47.03152 8.44695 11949 ft 161 kts 307°
2026-05-04 22:17 47.03998 8.43580 11927 ft 166 kts 320°
2026-05-04 22:18 47.04994 8.42709 11900 ft 169 kts 331°
2026-05-04 22:18 47.06100 8.42066 11863 ft 172 kts 338°
2026-05-04 22:18 47.07263 8.41590 11836 ft 175 kts 344°
2026-05-04 22:18 47.08463 8.41273 11818 ft 177 kts 349°
2026-05-04 22:19 47.09696 8.41088 11813 ft 177 kts 352°
2026-05-04 22:19 47.10923 8.41006 11783 ft 179 kts 360°
2026-05-04 22:19 47.12179 8.41342 11647 ft 187 kts 18°
2026-05-04 22:19 47.13285 8.42291 11684 ft 183 kts 41°
2026-05-04 22:20 47.14076 8.43743 11687 ft 183 kts 62°
2026-05-04 22:20 47.14516 8.45486 11666 ft 183 kts 83°
2026-05-04 22:20 47.14545 8.47301 11713 ft 177 kts 102°
2026-05-04 22:20 47.14168 8.48984 11749 ft 173 kts 123°
2026-05-04 22:21 47.13416 8.50341 11729 ft 171 kts 145°
2026-05-04 22:21 47.12410 8.51178 11779 ft 163 kts 165°
2026-05-04 22:21 47.11330 8.51580 11847 ft 158 kts 172°
2026-05-04 22:21 47.10254 8.51887 11840 ft 158 kts 173°
2026-05-04 22:22 47.09165 8.52152 11833 ft 159 kts 174°
2026-05-04 22:22 47.08079 8.52394 11852 ft 157 kts 175°
2026-05-04 22:22 47.06996 8.52616 11841 ft 158 kts 176°
2026-05-04 22:22 47.05906 8.52816 11824 ft 158 kts 176°
2026-05-04 22:23 47.04816 8.53002 11822 ft 158 kts 176°
2026-05-04 22:23 47.04094 8.53120 11811 ft 158 kts 176°
2026-05-04 22:23 47.03015 8.53428 11826 ft 156 kts 165°
2026-05-04 22:23 47.02023 8.53992 11878 ft 153 kts 158°
2026-05-04 22:24 47.01072 8.54729 11902 ft 152 kts 157°
2026-05-04 22:24 47.00167 8.55461 11993 ft 148 kts 153°
2026-05-04 22:24 46.99257 8.56208 12002 ft 149 kts 159°
2026-05-04 22:24 46.98302 8.56783 12009 ft 148 kts 162°
2026-05-04 22:25 46.97354 8.57310 12063 ft 145 kts 163°
2026-05-04 22:25 46.96421 8.57959 12094 ft 151 kts 156°
2026-05-04 22:25 46.95482 8.58579 12306 ft 145 kts 160°
2026-05-04 22:25 46.94546 8.59127 12417 ft 147 kts 165°
2026-05-04 22:26 46.93571 8.59623 12513 ft 148 kts 165°
2026-05-04 22:26 46.92592 8.60018 12668 ft 145 kts 169°
2026-05-04 22:26 46.91652 8.60610 12704 ft 151 kts 155°
2026-05-04 22:26 46.90725 8.61277 12850 ft 144 kts 166°
2026-05-04 22:27 46.89774 8.61707 12971 ft 144 kts 170°
2026-05-04 22:27 46.88822 8.62166 13028 ft 144 kts 163°
2026-05-04 22:27 46.87904 8.62732 13152 ft 143 kts 165°
2026-05-04 22:27 46.86996 8.63308 13239 ft 144 kts 163°
2026-05-04 22:28 46.86039 8.63821 13305 ft 147 kts 166°
2026-05-04 22:28 46.85086 8.64327 13413 ft 145 kts 167°
2026-05-04 22:28 46.84123 8.64724 13498 ft 143 kts 173°
2026-05-04 22:28 46.83166 8.65050 13592 ft 140 kts 175°
2026-05-04 22:29 46.82220 8.65295 13706 ft 137 kts 179°
2026-05-04 22:29 46.81273 8.65439 13763 ft 137 kts 181°
2026-05-04 22:29 46.80321 8.65624 13808 ft 139 kts 180°
2026-05-04 22:29 46.79360 8.65696 13870 ft 138 kts 187°
2026-05-04 22:30 46.78413 8.65556 13869 ft 135 kts 192°
2026-05-04 22:30 46.77502 8.65303 13929 ft 132 kts 201°
2026-05-04 22:30 46.76626 8.64883 13966 ft 133 kts 201°
2026-05-04 22:30 46.75719 8.64476 14013 ft 140 kts 200°
2026-05-04 22:31 46.74818 8.64014 14039 ft 137 kts 205°
2026-05-04 22:31 46.73964 8.63367 14076 ft 140 kts 211°
2026-05-04 22:31 46.73128 8.62745 14134 ft 132 kts 207°
2026-05-04 22:31 46.72289 8.62169 14173 ft 132 kts 208°
2026-05-04 22:32 46.71475 8.61558 14207 ft 132 kts 210°
2026-05-04 22:32 46.70640 8.60893 14252 ft 139 kts 210°
2026-05-04 22:32 46.69813 8.60240 14296 ft 137 kts 211°
2026-05-04 22:32 46.68960 8.59623 14318 ft 140 kts 201°
2026-05-04 22:33 46.67989 8.59324 14308 ft 145 kts 187°
2026-05-04 22:33 46.66977 8.59447 14314 ft 147 kts 175°
2026-05-04 22:33 46.65970 8.59622 14384 ft 145 kts 182°
2026-05-04 22:33 46.64961 8.59633 14420 ft 146 kts 184°
2026-05-04 22:34 46.63955 8.59675 14490 ft 143 kts 181°
2026-05-04 22:34 46.62960 8.59752 14531 ft 144 kts 179°
2026-05-04 22:34 46.61956 8.59876 14523 ft 145 kts 181°
2026-05-04 22:34 46.60953 8.59922 14573 ft 143 kts 182°
2026-05-04 22:35 46.59957 8.59980 14598 ft 144 kts 181°
2026-05-04 22:35 46.58956 8.60043 14625 ft 144 kts 181°
2026-05-04 22:35 46.57963 8.60124 14695 ft 142 kts 180°
2026-05-04 22:35 46.56968 8.60224 14721 ft 145 kts 180°
2026-05-04 22:36 46.55962 8.60328 14768 ft 144 kts 180°
2026-05-04 22:36 46.54963 8.60417 14819 ft 144 kts 181°
2026-05-04 22:36 46.53960 8.60477 14849 ft 145 kts 182°
2026-05-04 22:36 46.52953 8.60632 14882 ft 146 kts 175°
2026-05-04 22:37 46.51959 8.60883 14932 ft 144 kts 175°
2026-05-04 22:37 46.50970 8.61114 14979 ft 145 kts 177°
2026-05-04 22:37 46.49968 8.61284 15022 ft 144 kts 180°
2026-05-04 22:37 46.48973 8.61348 15098 ft 144 kts 184°
2026-05-04 22:38 46.47968 8.61252 15133 ft 145 kts 190°
2026-05-04 22:38 46.46967 8.61193 15158 ft 144 kts 179°
2026-05-04 22:38 46.45961 8.61350 15220 ft 145 kts 179°
2026-05-04 22:38 46.44955 8.61449 15276 ft 145 kts 181°
2026-05-04 22:39 46.43947 8.61624 15322 ft 147 kts 174°
2026-05-04 22:39 46.42939 8.61904 15383 ft 151 kts 173°
2026-05-04 22:39 46.41886 8.62207 15299 ft 162 kts 172°
2026-05-04 22:39 46.40750 8.62523 15265 ft 168 kts 175°
2026-05-04 22:40 46.39600 8.62844 15261 ft 168 kts 172°
2026-05-04 22:40 46.38440 8.63158 15217 ft 170 kts 176°
2026-05-04 22:40 46.37273 8.63400 15228 ft 170 kts 175°
2026-05-04 22:40 46.36095 8.63680 15206 ft 173 kts 174°
2026-05-04 22:41 46.34905 8.63933 15196 ft 174 kts 177°
2026-05-04 22:41 46.33691 8.64106 15139 ft 178 kts 180°
2026-05-04 22:41 46.32468 8.64185 15137 ft 174 kts 181°
2026-05-04 22:41 46.31257 8.64201 15118 ft 175 kts 184°
2026-05-04 22:42 46.30046 8.64170 15116 ft 173 kts 184°
2026-05-04 22:42 46.28838 8.64163 15097 ft 174 kts 183°
2026-05-04 22:42 46.27612 8.64216 15113 ft 177 kts 181°
2026-05-04 22:42 46.26404 8.64316 15109 ft 172 kts 181°
2026-05-04 22:43 46.25219 8.64429 15089 ft 169 kts 180°
2026-05-04 22:43 46.24064 8.64563 15070 ft 164 kts 180°
2026-05-04 22:43 46.22939 8.64695 15069 ft 162 kts 179°
2026-05-04 22:43 46.21812 8.64840 15060 ft 163 kts 179°
2026-05-04 22:44 46.20676 8.65007 15061 ft 164 kts 179°
2026-05-04 22:44 46.19539 8.65171 15065 ft 164 kts 179°
2026-05-04 22:44 46.18389 8.65329 15039 ft 166 kts 179°
2026-05-04 22:44 46.17251 8.65490 15039 ft 164 kts 179°
2026-05-04 22:45 46.16115 8.65652 15012 ft 164 kts 178°
2026-05-04 22:45 46.13868 8.65984 14970 ft 164 kts 179°
2026-05-04 22:45 46.12738 8.66141 14950 ft 162 kts 180°
2026-05-04 22:46 46.11621 8.66291 14936 ft 161 kts 179°
2026-05-04 22:46 46.10515 8.66530 14928 ft 160 kts 168°
2026-05-04 22:46 46.09505 8.67254 14908 ft 165 kts 153°
2026-05-04 22:46 46.08506 8.68096 14871 ft 168 kts 157°
2026-05-04 22:47 46.07472 8.68882 14844 ft 169 kts 158°
2026-05-04 22:47 46.06427 8.69666 14800 ft 170 kts 158°
2026-05-04 22:47 46.05379 8.70461 14772 ft 170 kts 158°
2026-05-04 22:47 46.04332 8.71263 14759 ft 171 kts 158°
2026-05-04 22:48 46.03283 8.72073 14720 ft 172 kts 158°
2026-05-04 22:48 46.02220 8.72893 14686 ft 174 kts 157°
2026-05-04 22:48 46.01152 8.73723 14643 ft 175 kts 157°
2026-05-04 22:48 46.00101 8.74548 14706 ft 169 kts 157°
2026-05-04 22:49 45.99093 8.75342 14757 ft 166 kts 157°
2026-05-04 22:49 45.98090 8.76132 14802 ft 163 kts 158°
2026-05-04 22:49 45.97104 8.76905 14842 ft 160 kts 158°
2026-05-04 22:49 45.96130 8.77664 14895 ft 158 kts 158°
2026-05-04 22:50 45.95165 8.78415 14932 ft 157 kts 158°
2026-05-04 22:50 45.94205 8.79161 14964 ft 157 kts 158°
2026-05-04 22:50 45.93248 8.79905 15007 ft 156 kts 158°
2026-05-04 22:50 45.92297 8.80646 15031 ft 156 kts 158°
2026-05-04 22:51 45.91341 8.81391 15042 ft 156 kts 158°
2026-05-04 22:51 45.90382 8.82136 15011 ft 159 kts 158°
2026-05-04 22:51 45.89424 8.82884 15067 ft 156 kts 158°
2026-05-04 22:51 45.88465 8.83630 15057 ft 158 kts 158°
2026-05-04 22:52 45.87494 8.84385 15074 ft 159 kts 158°
2026-05-04 22:52 45.86522 8.85140 15090 ft 159 kts 158°
2026-05-04 22:52 45.85549 8.85894 15096 ft 159 kts 158°
2026-05-04 22:52 45.84577 8.86646 15099 ft 159 kts 158°
2026-05-04 22:53 45.83606 8.87395 15101 ft 158 kts 158°
2026-05-04 22:53 45.82635 8.88143 15102 ft 158 kts 158°
2026-05-04 22:53 45.81665 8.88887 15103 ft 158 kts 158°
2026-05-04 22:53 45.80692 8.89635 15101 ft 159 kts 158°
2026-05-04 22:54 45.79719 8.90391 15099 ft 159 kts 157°
2026-05-04 22:54 45.78746 8.91149 15106 ft 159 kts 157°
2026-05-04 22:54 45.77776 8.91904 15109 ft 159 kts 158°
2026-05-04 22:54 45.76803 8.92658 15119 ft 159 kts 158°
2026-05-04 22:55 45.75832 8.93411 15115 ft 159 kts 157°
2026-05-04 22:55 45.74860 8.94165 15117 ft 159 kts 158°
2026-05-04 22:55 45.73887 8.94919 15111 ft 159 kts 158°
2026-05-04 22:55 45.72913 8.95673 15112 ft 159 kts 158°
2026-05-04 22:56 45.71940 8.96426 15115 ft 159 kts 158°
2026-05-04 22:56 45.70967 8.97178 15108 ft 159 kts 158°
2026-05-04 22:56 45.70007 8.97920 15114 ft 159 kts 158°
2026-05-04 22:56 45.69020 8.98683 15114 ft 159 kts 158°
2026-05-04 22:57 45.68058 8.99425 15109 ft 159 kts 158°
2026-05-04 22:57 45.67085 9.00176 15113 ft 159 kts 158°
2026-05-04 22:57 45.66111 9.00927 15108 ft 159 kts 158°
2026-05-04 22:57 45.65137 9.01673 15115 ft 159 kts 160°
2026-05-04 22:58 45.64083 9.02045 15136 ft 155 kts 181°
2026-05-04 22:58 45.63025 9.02053 15156 ft 150 kts 185°
2026-05-04 22:58 45.61984 9.01983 15156 ft 150 kts 187°
2026-05-04 22:58 45.60940 9.01886 15138 ft 152 kts 187°
2026-05-04 22:59 45.59885 9.01783 15140 ft 152 kts 187°
2026-05-04 22:59 45.58831 9.01685 15138 ft 152 kts 186°
2026-05-04 22:59 45.57775 9.01593 15132 ft 152 kts 186°
2026-05-04 22:59 45.56720 9.01505 15134 ft 152 kts 186°
2026-05-04 23:00 45.55665 9.01420 15127 ft 152 kts 186°
2026-05-04 23:00 45.54609 9.01339 15124 ft 152 kts 186°
2026-05-04 23:00 45.53554 9.01258 15126 ft 152 kts 186°
2026-05-04 23:00 45.52499 9.01178 15122 ft 152 kts 186°
2026-05-04 23:01 45.51444 9.01097 15107 ft 152 kts 186°
2026-05-04 23:01 45.50388 9.01016 15105 ft 152 kts 186°
2026-05-04 23:01 45.49333 9.00935 15102 ft 152 kts 186°
2026-05-04 23:01 45.48277 9.00855 15101 ft 152 kts 186°
2026-05-04 23:02 45.47222 9.00775 15098 ft 152 kts 186°
2026-05-04 23:02 45.46166 9.00695 15098 ft 152 kts 186°
2026-05-04 23:02 45.45112 9.00615 15098 ft 152 kts 186°
2026-05-04 23:02 45.44056 9.00535 15095 ft 152 kts 186°
2026-05-04 23:03 45.43000 9.00455 15092 ft 152 kts 186°
2026-05-04 23:03 45.41945 9.00375 15092 ft 152 kts 186°
2026-05-04 23:03 45.40879 9.00289 15081 ft 154 kts 186°
2026-05-04 23:03 45.39808 9.00205 15082 ft 154 kts 186°
2026-05-04 23:04 45.38735 9.00125 15084 ft 154 kts 185°
2026-05-04 23:04 45.37665 9.00047 15084 ft 154 kts 185°
2026-05-04 23:04 45.36594 8.99968 15085 ft 154 kts 186°
2026-05-04 23:04 45.35522 8.99888 15082 ft 154 kts 186°
2026-05-04 23:05 45.34451 8.99808 15092 ft 154 kts 186°
2026-05-04 23:05 45.33382 8.99728 15090 ft 154 kts 186°
2026-05-04 23:05 45.32311 8.99647 15089 ft 154 kts 186°
2026-05-04 23:05 45.31241 8.99567 15093 ft 154 kts 186°
2026-05-04 23:06 45.30171 8.99487 15087 ft 154 kts 186°
2026-05-04 23:06 45.29100 8.99405 15098 ft 154 kts 186°
2026-05-04 23:06 45.28029 8.99324 15102 ft 154 kts 186°
2026-05-04 23:06 45.26959 8.99243 15109 ft 154 kts 186°
2026-05-04 23:07 45.25889 8.99163 15114 ft 154 kts 186°
2026-05-04 23:07 45.24821 8.99083 15117 ft 154 kts 186°
2026-05-04 23:07 45.23751 8.99002 15117 ft 154 kts 186°
2026-05-04 23:07 45.22681 8.98922 15120 ft 154 kts 186°
2026-05-04 23:08 45.21613 8.98846 15120 ft 154 kts 186°
2026-05-04 23:08 45.20544 8.98769 15117 ft 154 kts 186°
2026-05-04 23:08 45.19476 8.98689 15120 ft 154 kts 186°
2026-05-04 23:08 45.18423 8.98609 15121 ft 154 kts 186°
2026-05-04 23:09 45.17355 8.98526 15125 ft 154 kts 186°
2026-05-04 23:09 45.16289 8.98444 15126 ft 154 kts 186°
2026-05-04 23:09 45.15221 8.98362 15125 ft 154 kts 186°
2026-05-04 23:09 45.14153 8.98282 15127 ft 154 kts 186°
2026-05-04 23:10 45.13087 8.98202 15127 ft 153 kts 186°
2026-05-04 23:10 45.12020 8.98122 15127 ft 154 kts 186°
2026-05-04 23:10 45.10954 8.98042 15131 ft 153 kts 186°
2026-05-04 23:10 45.09888 8.97962 15131 ft 153 kts 186°
2026-05-04 23:11 45.08822 8.97882 15131 ft 154 kts 186°
2026-05-04 23:11 45.07755 8.97802 15133 ft 153 kts 186°
2026-05-04 23:11 45.07050 8.97749 15135 ft 153 kts 186°
2026-05-04 23:11 45.05984 8.97670 15134 ft 153 kts 186°
2026-05-04 23:12 45.04918 8.97590 15136 ft 153 kts 186°
2026-05-04 23:12 45.03853 8.97510 15139 ft 153 kts 186°
2026-05-04 23:12 45.02789 8.97434 15134 ft 153 kts 186°
2026-05-04 23:12 45.01725 8.97367 15133 ft 153 kts 186°
2026-05-04 23:13 45.00663 8.97290 15133 ft 153 kts 187°
2026-05-04 23:13 44.99602 8.97208 15118 ft 153 kts 187°
2026-05-04 23:13 44.98541 8.97124 15117 ft 153 kts 187°
2026-05-04 23:13 44.97479 8.97042 15116 ft 153 kts 187°
2026-05-04 23:14 44.96415 8.97011 15105 ft 154 kts 180°
2026-05-04 23:14 44.95349 8.97198 15104 ft 155 kts 176°
2026-05-04 23:14 44.94284 8.97422 15110 ft 155 kts 176°
2026-05-04 23:14 44.93221 8.97647 15111 ft 155 kts 176°
2026-05-04 23:15 44.92156 8.97875 15109 ft 155 kts 176°
2026-05-04 23:15 44.91091 8.98103 15111 ft 155 kts 176°
2026-05-04 23:15 44.90027 8.98331 15114 ft 155 kts 176°
2026-05-04 23:15 44.88962 8.98559 15115 ft 155 kts 176°
2026-05-04 23:16 44.87898 8.98786 15120 ft 154 kts 176°
2026-05-04 23:16 44.86835 8.99013 15122 ft 154 kts 176°
2026-05-04 23:16 44.85772 8.99238 15119 ft 154 kts 176°
2026-05-04 23:16 44.84709 8.99461 15121 ft 154 kts 176°
2026-05-04 23:17 44.83646 8.99680 15120 ft 154 kts 176°
2026-05-04 23:17 44.82586 8.99894 15128 ft 154 kts 176°
2026-05-04 23:17 44.81528 9.00112 15132 ft 153 kts 176°
2026-05-04 23:17 44.80471 9.00329 15135 ft 154 kts 176°
2026-05-04 23:18 44.79412 9.00548 15145 ft 154 kts 176°
2026-05-04 23:18 44.78368 9.00764 15154 ft 154 kts 176°
2026-05-04 23:18 44.77311 9.00984 15145 ft 154 kts 176°
2026-05-04 23:18 44.76253 9.01205 15133 ft 154 kts 176°
2026-05-04 23:19 44.75194 9.01423 15116 ft 154 kts 176°
2026-05-04 23:19 44.74135 9.01640 15112 ft 153 kts 176°
2026-05-04 23:19 44.73079 9.01856 15119 ft 153 kts 176°
2026-05-04 23:19 44.72025 9.02071 15118 ft 153 kts 176°
2026-05-04 23:20 44.70970 9.02292 15117 ft 153 kts 176°
2026-05-04 23:20 44.69920 9.02514 15119 ft 153 kts 176°
2026-05-04 23:20 44.68865 9.02728 15118 ft 154 kts 176°
2026-05-04 23:20 44.67806 9.02945 15111 ft 154 kts 176°
2026-05-04 23:21 44.66748 9.03159 15113 ft 153 kts 176°
2026-05-04 23:21 44.65692 9.03373 15101 ft 153 kts 176°
2026-05-04 23:21 44.64638 9.03591 15099 ft 153 kts 175°
2026-05-04 23:21 44.63585 9.03806 15110 ft 152 kts 175°
2026-05-04 23:22 44.62539 9.04020 15116 ft 152 kts 175°
2026-05-04 23:22 44.61492 9.04239 15126 ft 152 kts 175°
2026-05-04 23:22 44.60446 9.04460 15125 ft 152 kts 175°
2026-05-04 23:22 44.59399 9.04675 15128 ft 152 kts 175°
2026-05-04 23:23 44.58350 9.04783 15144 ft 151 kts 193°
2026-05-04 23:23 44.57418 9.04189 15189 ft 146 kts 214°
2026-05-04 23:23 44.56611 9.03341 15203 ft 144 kts 219°
2026-05-04 23:23 44.55845 9.02431 15223 ft 144 kts 220°
2026-05-04 23:24 44.55086 9.01516 15231 ft 144 kts 219°
2026-05-04 23:24 44.54317 9.00610 15239 ft 144 kts 219°
2026-05-04 23:24 44.53540 8.99719 15253 ft 144 kts 218°
2026-05-04 23:24 44.52766 8.98855 15254 ft 144 kts 218°
2026-05-04 23:25 44.51977 8.97987 15255 ft 144 kts 217°
2026-05-04 23:25 44.51184 8.97124 15265 ft 144 kts 217°
2026-05-04 23:25 44.50389 8.96265 15273 ft 144 kts 217°
2026-05-04 23:25 44.49590 8.95405 15275 ft 146 kts 217°
2026-05-04 23:26 44.48789 8.94548 15283 ft 145 kts 217°
2026-05-04 23:26 44.47991 8.93693 15298 ft 144 kts 217°
2026-05-04 23:26 44.47192 8.92841 15300 ft 145 kts 215°
2026-05-04 23:26 44.46378 8.92003 15294 ft 145 kts 216°
2026-05-04 23:27 44.45575 8.91145 15306 ft 145 kts 217°
2026-05-04 23:27 44.44778 8.90279 15309 ft 145 kts 217°
2026-05-04 23:27 44.43978 8.89414 15316 ft 145 kts 217°
2026-05-04 23:27 44.43179 8.88552 15321 ft 145 kts 217°
2026-05-04 23:28 44.42378 8.87693 15326 ft 145 kts 217°
2026-05-04 23:28 44.41575 8.86835 15333 ft 145 kts 217°
2026-05-04 23:28 44.40772 8.85978 15337 ft 145 kts 217°
2026-05-04 23:28 44.39969 8.85120 15343 ft 145 kts 217°
2026-05-04 23:29 44.39167 8.84263 15341 ft 145 kts 217°
2026-05-04 23:29 44.38365 8.83406 15346 ft 145 kts 217°
2026-05-04 23:29 44.37562 8.82550 15345 ft 145 kts 217°
2026-05-04 23:29 44.36758 8.81695 15351 ft 145 kts 217°
2026-05-04 23:30 44.35956 8.80841 15355 ft 145 kts 217°
2026-05-04 23:30 44.35154 8.79986 15352 ft 145 kts 217°
2026-05-04 23:30 44.34352 8.79132 15352 ft 145 kts 217°
2026-05-04 23:30 44.33550 8.78278 15357 ft 145 kts 217°
2026-05-04 23:31 44.32760 8.77437 15357 ft 145 kts 217°
2026-05-04 23:31 44.31957 8.76584 15358 ft 145 kts 217°
2026-05-04 23:31 44.31155 8.75732 15362 ft 145 kts 217°
2026-05-04 23:31 44.30353 8.74880 15363 ft 145 kts 217°
2026-05-04 23:32 44.29551 8.74029 15365 ft 145 kts 217°
2026-05-04 23:32 44.28749 8.73177 15366 ft 145 kts 217°
2026-05-04 23:32 44.27949 8.72326 15359 ft 144 kts 217°
2026-05-04 23:32 44.27158 8.71478 15367 ft 144 kts 216°
2026-05-04 23:33 44.26365 8.70624 15368 ft 144 kts 216°
2026-05-04 23:33 44.25569 8.69778 15371 ft 144 kts 215°
2026-05-04 23:33 44.24771 8.68937 15372 ft 144 kts 215°
2026-05-04 23:33 44.23919 8.68218 15353 ft 145 kts 194°
2026-05-04 23:34 44.22912 8.68208 15363 ft 145 kts 176°
2026-05-04 23:34 44.21913 8.68408 15375 ft 145 kts 175°
2026-05-04 23:34 44.20918 8.68646 15371 ft 146 kts 171°
2026-05-04 23:34 44.19942 8.69030 15355 ft 147 kts 161°
2026-05-04 23:35 44.19031 8.69711 15346 ft 149 kts 155°
2026-05-04 23:35 44.18138 8.70448 15355 ft 149 kts 154°
2026-05-04 23:35 44.17247 8.71191 15360 ft 149 kts 154°
2026-05-04 23:35 44.16356 8.71935 15356 ft 150 kts 154°
2026-05-04 23:36 44.15463 8.72698 15358 ft 151 kts 154°
2026-05-04 23:36 44.14572 8.73467 15363 ft 151 kts 154°
2026-05-04 23:36 44.13750 8.74385 15322 ft 155 kts 138°
2026-05-04 23:36 44.13065 8.75562 15339 ft 157 kts 135°
2026-05-04 23:37 44.12398 8.76771 15343 ft 157 kts 135°
2026-05-04 23:37 44.11736 8.77981 15353 ft 157 kts 135°
2026-05-04 23:37 44.11072 8.79192 15364 ft 157 kts 134°
2026-05-04 23:37 44.10408 8.80402 15369 ft 157 kts 134°
2026-05-04 23:38 44.09745 8.81611 15379 ft 157 kts 135°
2026-05-04 23:38 44.09081 8.82818 15389 ft 157 kts 134°
2026-05-04 23:38 44.08427 8.84011 15399 ft 157 kts 135°
2026-05-04 23:38 44.07763 8.85219 15407 ft 157 kts 135°
2026-05-04 23:39 44.07101 8.86434 15418 ft 158 kts 135°
2026-05-04 23:39 44.06442 8.87652 15428 ft 158 kts 134°
2026-05-04 23:39 44.05782 8.88869 15439 ft 158 kts 135°
2026-05-04 23:39 44.05120 8.90085 15448 ft 158 kts 134°
2026-05-04 23:40 44.04459 8.91304 15458 ft 158 kts 135°
2026-05-04 23:40 44.03797 8.92521 15469 ft 158 kts 135°
2026-05-04 23:40 44.03133 8.93736 15477 ft 158 kts 135°
2026-05-04 23:40 44.02472 8.94951 15485 ft 158 kts 135°
2026-05-04 23:41 44.01781 8.96125 15510 ft 156 kts 142°
2026-05-04 23:41 44.00992 8.97147 15527 ft 154 kts 146°
2026-05-04 23:41 44.00167 8.98081 15539 ft 152 kts 149°
2026-05-04 23:41 43.99306 8.98930 15560 ft 151 kts 156°
2026-05-04 23:42 43.98395 8.99638 15575 ft 150 kts 161°
2026-05-04 23:42 43.97415 9.00071 15603 ft 147 kts 180°
2026-05-04 23:42 43.96404 9.00133 15608 ft 144 kts 183°
2026-05-04 23:42 43.95391 9.00142 15544 ft 149 kts 184°
2026-05-04 23:43 43.94334 9.00140 15459 ft 154 kts 184°
2026-05-04 23:43 43.93255 9.00051 15403 ft 156 kts 192°
2026-05-04 23:43 43.92189 8.99735 15342 ft 158 kts 197°
2026-05-04 23:43 43.91127 8.99326 15285 ft 159 kts 198°
2026-05-04 23:44 43.90096 8.98774 15242 ft 159 kts 207°
2026-05-04 23:44 43.89143 8.97979 15190 ft 160 kts 214°
2026-05-04 23:44 43.88219 8.97096 15143 ft 162 kts 214°
2026-05-04 23:44 43.87295 8.96199 15092 ft 163 kts 214°
2026-05-04 23:45 43.86387 8.95236 15034 ft 166 kts 225°
2026-05-04 23:45 43.85713 8.93934 14996 ft 168 kts 239°
2026-05-04 23:45 43.85193 8.92464 14899 ft 172 kts 242°
2026-05-04 23:45 43.84693 8.90940 14817 ft 175 kts 242°
2026-05-04 23:46 43.84172 8.89395 14701 ft 179 kts 242°
2026-05-04 23:46 43.83618 8.87829 14591 ft 183 kts 240°
2026-05-04 23:46 43.83038 8.86252 14481 ft 185 kts 240°
2026-05-04 23:46 43.82442 8.84673 14377 ft 185 kts 239°
2026-05-04 23:47 43.81836 8.83095 14281 ft 186 kts 239°
2026-05-04 23:47 43.81220 8.81511 14174 ft 187 kts 239°
2026-05-04 23:47 43.80600 8.79925 14078 ft 188 kts 239°
2026-05-04 23:47 43.79976 8.78340 13981 ft 188 kts 239°
2026-05-04 23:48 43.79352 8.76753 13886 ft 188 kts 239°
2026-05-04 23:48 43.78729 8.75167 13803 ft 188 kts 239°
2026-05-04 23:48 43.78104 8.73579 13703 ft 188 kts 239°
2026-05-04 23:48 43.77479 8.71992 13603 ft 188 kts 239°
2026-05-04 23:49 43.76864 8.70404 13497 ft 191 kts 239°
2026-05-04 23:49 43.76231 8.68781 13404 ft 192 kts 238°
2026-05-04 23:49 43.75591 8.67161 13309 ft 192 kts 238°
2026-05-04 23:49 43.74948 8.65545 13216 ft 192 kts 238°
2026-05-04 23:50 43.74306 8.63929 13125 ft 192 kts 238°
2026-05-04 23:50 43.73664 8.62314 13036 ft 192 kts 238°
2026-05-04 23:50 43.73021 8.60697 12947 ft 192 kts 238°
2026-05-04 23:50 43.72378 8.59074 12832 ft 193 kts 238°
2026-05-04 23:51 43.71731 8.57441 12728 ft 194 kts 238°
2026-05-04 23:51 43.71084 8.55805 12635 ft 194 kts 238°
2026-05-04 23:51 43.70444 8.54171 12542 ft 192 kts 238°
2026-05-04 23:51 43.69808 8.52525 12335 ft 198 kts 238°
2026-05-04 23:52 43.69144 8.50821 12093 ft 202 kts 238°
2026-05-04 23:52 43.68485 8.49136 12022 ft 197 kts 238°
2026-05-04 23:52 43.67825 8.47477 11877 ft 197 kts 237°
2026-05-04 23:52 43.67156 8.45818 11724 ft 198 kts 237°
2026-05-04 23:53 43.66488 8.44160 11588 ft 198 kts 237°
2026-05-04 23:53 43.65821 8.42500 11454 ft 197 kts 237°
2026-05-04 23:53 43.65161 8.40846 11319 ft 196 kts 237°
2026-05-04 23:53 43.64506 8.39201 11172 ft 195 kts 237°
2026-05-04 23:54 43.63853 8.37561 11024 ft 194 kts 237°
2026-05-04 23:54 43.63209 8.35944 10852 ft 191 kts 237°
2026-05-04 23:54 43.62569 8.34340 10644 ft 191 kts 237°
2026-05-04 23:54 43.61920 8.32724 10428 ft 193 kts 237°
2026-05-04 23:55 43.61286 8.31105 10216 ft 191 kts 237°
2026-05-04 23:55 43.60639 8.29497 10014 ft 192 kts 237°
2026-05-04 23:55 43.59350 8.26291 9588 ft 191 kts 237°
2026-05-04 23:56 43.58714 8.24712 9379 ft 190 kts 237°
2026-05-04 23:56 43.58075 8.23113 9178 ft 190 kts 237°
2026-05-04 23:56 43.57430 8.21520 8979 ft 190 kts 237°
2026-05-04 23:56 43.56787 8.19938 8764 ft 189 kts 237°
2026-05-04 23:57 43.56160 8.18350 8550 ft 188 kts 237°
2026-05-04 23:57 43.55537 8.16776 8339 ft 187 kts 237°
2026-05-04 23:57 43.54900 8.15211 8130 ft 187 kts 237°
2026-05-04 23:57 43.54278 8.13653 7914 ft 184 kts 237°
2026-05-04 23:58 43.53646 8.12119 7689 ft 184 kts 237°
2026-05-04 23:58 43.53012 8.10586 7474 ft 184 kts 238°
2026-05-04 23:58 43.52392 8.09047 7268 ft 184 kts 238°
2026-05-04 23:58 43.51772 8.07508 7069 ft 183 kts 238°
2026-05-04 23:59 43.51155 8.05975 6877 ft 183 kts 238°
2026-05-04 23:59 43.50538 8.04444 6696 ft 183 kts 238°
2026-05-04 23:59 43.49922 8.02916 6507 ft 182 kts 238°
2026-05-04 23:59 43.49307 8.01394 6325 ft 182 kts 238°
2026-05-05 00:00 43.48699 7.99875 6135 ft 180 kts 237°
2026-05-05 00:00 43.48495 7.99366 6073 ft 180 kts 237°
2026-05-05 00:00 43.47502 7.96909 5947 ft 172 kts 237°
2026-05-05 00:00 43.46949 7.95471 5873 ft 167 kts 236°
2026-05-05 00:01 43.46403 7.94075 5799 ft 163 kts 234°
2026-05-05 00:01 43.45850 7.92716 5704 ft 162 kts 233°
2026-05-05 00:01 43.45279 7.91365 5606 ft 163 kts 234°
2026-05-05 00:01 43.44702 7.90015 5508 ft 164 kts 235°
2026-05-05 00:02 43.44332 7.89117 5438 ft 163 kts 235°
2026-05-05 00:02 43.43616 7.87323 5319 ft 160 kts 234°
2026-05-05 00:02 43.43062 7.85992 5219 ft 161 kts 235°
2026-05-05 00:02 43.42504 7.84654 5117 ft 162 kts 236°
2026-05-05 00:03 43.41956 7.83303 5018 ft 161 kts 236°
2026-05-05 00:03 43.41601 7.82387 4942 ft 161 kts 239°
2026-05-05 00:03 43.41444 7.80340 4840 ft 167 kts 271°
2026-05-05 00:03 43.41560 7.79270 4843 ft 169 kts 273°
2026-05-05 00:04 43.41769 7.77675 4816 ft 170 kts 272°
2026-05-05 00:04 43.41965 7.76072 4780 ft 170 kts 272°
2026-05-05 00:04 43.42147 7.74468 4753 ft 169 kts 272°
2026-05-05 00:04 43.42337 7.72878 4728 ft 169 kts 272°
2026-05-05 00:05 43.42524 7.71282 4699 ft 168 kts 271°
2026-05-05 00:05 43.42678 7.69700 4663 ft 167 kts 273°
2026-05-05 00:05 43.42854 7.68130 4635 ft 169 kts 274°
2026-05-05 00:05 43.43058 7.66513 4612 ft 170 kts 272°
2026-05-05 00:06 43.43215 7.64944 4583 ft 168 kts 273°
2026-05-05 00:06 43.43392 7.63357 4556 ft 168 kts 273°
2026-05-05 00:06 43.43574 7.61767 4531 ft 169 kts 273°
2026-05-05 00:06 43.43777 7.60164 4515 ft 170 kts 271°
2026-05-05 00:07 43.43939 7.58547 4517 ft 174 kts 271°
2026-05-05 00:07 43.43972 7.56849 4532 ft 178 kts 263°
2026-05-05 00:07 43.43864 7.55148 4537 ft 178 kts 261°
2026-05-05 00:07 43.43741 7.53444 4546 ft 182 kts 260°
2026-05-05 00:08 43.43586 7.51661 4487 ft 192 kts 259°
2026-05-05 00:08 43.43428 7.49832 4392 ft 192 kts 259°
2026-05-05 00:08 43.43250 7.47983 4341 ft 196 kts 261°
2026-05-05 00:08 43.43118 7.46089 4306 ft 201 kts 261°
2026-05-05 00:09 43.42963 7.44188 4267 ft 199 kts 259°
2026-05-05 00:09 43.42780 7.42307 4204 ft 197 kts 259°
2026-05-05 00:09 43.42604 7.40441 4143 ft 195 kts 261°
2026-05-05 00:09 43.42441 7.38593 4085 ft 194 kts 262°
2026-05-05 00:10 43.42292 7.36714 4075 ft 199 kts 261°
2026-05-05 00:10 43.42154 7.34846 4067 ft 194 kts 259°
2026-05-05 00:10 43.41988 7.33035 4078 ft 188 kts 259°
2026-05-05 00:10 43.41831 7.31266 4080 ft 185 kts 261°
2026-05-05 00:11 43.41701 7.29551 4086 ft 177 kts 259°
2026-05-05 00:11 43.41545 7.27839 4087 ft 184 kts 259°
2026-05-05 00:11 43.41420 7.26083 4086 ft 183 kts 258°
2026-05-05 00:11 43.41256 7.24364 4075 ft 180 kts 257°
2026-05-05 00:12 43.41079 7.22648 4094 ft 183 kts 258°
2026-05-05 00:12 43.40912 7.20932 4087 ft 177 kts 260°
2026-05-05 00:12 43.40769 7.19239 4089 ft 178 kts 261°
2026-05-05 00:12 43.40631 7.17527 4083 ft 177 kts 260°
2026-05-05 00:13 43.40537 7.15950 4086 ft 158 kts 257°
2026-05-05 00:13 43.40419 7.14467 4083 ft 154 kts 255°
2026-05-05 00:13 43.40274 7.13016 4080 ft 154 kts 252°
2026-05-05 00:13 43.40114 7.11568 4093 ft 152 kts 255°
2026-05-05 00:14 43.39985 7.10114 4089 ft 154 kts 255°
2026-05-05 00:14 43.39850 7.08663 4081 ft 152 kts 255°
2026-05-05 00:14 43.39724 7.07242 4087 ft 151 kts 254°
2026-05-05 00:14 43.39595 7.05787 4086 ft 151 kts 255°
2026-05-05 00:15 43.39464 7.04353 4084 ft 151 kts 254°
2026-05-05 00:15 43.39336 7.02951 4090 ft 149 kts 255°
2026-05-05 00:15 43.39211 7.01534 4087 ft 149 kts 254°
2026-05-05 00:15 43.39079 7.00115 4085 ft 150 kts 254°
2026-05-05 00:16 43.38970 6.98687 4074 ft 150 kts 262°
2026-05-05 00:16 43.39209 6.97297 4101 ft 153 kts 291°
2026-05-05 00:16 43.39943 6.96179 4082 ft 162 kts 321°
2026-05-05 00:16 43.41025 6.95682 4101 ft 170 kts 354°
2026-05-05 00:17 43.42252 6.95629 4104 ft 178 kts 359°
2026-05-05 00:17 43.43466 6.95516 4095 ft 173 kts
2026-05-05 00:17 43.44687 6.95466 4092 ft 178 kts
2026-05-05 00:17 43.45937 6.95473 4087 ft 180 kts
2026-05-05 00:18 43.47154 6.95811 4087 ft 180 kts 34°
2026-05-05 00:18 43.48061 6.96925 4093 ft 171 kts 52°
2026-05-05 00:18 43.48875 6.98102 4087 ft 168 kts 50°
2026-05-05 00:18 43.49701 6.99235 4099 ft 165 kts 51°
2026-05-05 00:19 43.50511 7.00324 4082 ft 161 kts 50°
2026-05-05 00:19 43.51288 7.01396 4066 ft 156 kts 50°
2026-05-05 00:19 43.52065 7.02454 3836 ft 158 kts 49°
2026-05-05 00:19 43.52844 7.03497 3607 ft 157 kts 50°
2026-05-05 00:20 43.53619 7.04554 3389 ft 155 kts 50°
2026-05-05 00:20 43.54374 7.05593 3163 ft 152 kts 49°
2026-05-05 00:20 43.55102 7.06584 2928 ft 142 kts 50°
2026-05-05 00:20 43.55769 7.07507 2733 ft 129 kts 50°
2026-05-05 00:21 43.56390 7.08325 2543 ft 115 kts 51°
2026-05-05 00:21 43.56959 7.09109 2375 ft 119 kts 51°
2026-05-05 00:21 43.57566 7.09900 2215 ft 118 kts 55°
2026-05-05 00:21 43.58125 7.10729 2051 ft 117 kts 51°
2026-05-05 00:22 43.58687 7.11488 1871 ft 108 kts 52°
2026-05-05 00:22 43.59214 7.12238 1740 ft 111 kts 50°
2026-05-05 00:22 43.59780 7.13003 1579 ft 117 kts 49°
2026-05-05 00:22 43.60351 7.13769 1384 ft 107 kts 51°
2026-05-05 00:23 43.60813 7.14408 1250 ft 85 kts 51°
2026-05-05 00:23 43.61271 7.15076 1140 ft 102 kts 44°
2026-05-05 00:23 43.61788 7.15776 989 ft 107 kts 43°
2026-05-05 00:23 43.62325 7.16497 831 ft 108 kts 43°
2026-05-05 00:24 43.62859 7.17221 678 ft 108 kts 44°
2026-05-05 00:24 43.63382 7.17934 568 ft 104 kts 43°
2026-05-05 00:24 43.63886 7.18626 433 ft 101 kts 45°
2026-05-05 00:24 43.64369 7.19309 296 ft 99 kts 44°
2026-05-05 00:25 43.64865 7.19979 192 ft 101 kts 42°
2026-05-05 00:25 43.65350 7.20644 56 ft 96 kts 44°
2026-05-05 00:25 43.65797 7.21255 19 ft 81 kts 44°
2026-05-05 00:25 43.66109 7.21676 16 ft 46 kts 44°
2026-05-05 00:26 43.66246 7.21715 16 ft 17 kts 311°
2026-05-05 00:26 43.66276 7.21668 17 ft 0 kts 315°
2026-05-05 00:26 43.66289 7.21658 17 ft 5 kts 347°
2026-05-05 00:27 43.66340 7.21677 17 ft 10 kts 38°
2026-05-05 00:27 43.66400 7.21757 17 ft 14 kts 47°
2026-05-05 00:27 43.66469 7.21864 17 ft 16 kts 48°
2026-05-05 00:27 43.66547 7.21969 17 ft 15 kts 43°
2026-05-05 00:28 43.66622 7.22064 17 ft 14 kts 45°
2026-05-05 00:28 43.66691 7.22159 17 ft 14 kts 45°
2026-05-05 00:28 43.66759 7.22251 17 ft 13 kts 45°
2026-05-05 00:28 43.66825 7.22349 17 ft 17 kts 47°
2026-05-05 00:29 43.66927 7.22490 17 ft 24 kts 44°
2026-05-05 00:29 43.67031 7.22629 17 ft 16 kts 44°
2026-05-05 00:29 43.67094 7.22715 17 ft 9 kts 45°
2026-05-05 00:29 43.67127 7.22758 17 ft 2 kts 24°
2026-05-05 00:30 43.67131 7.22758 17 ft 0 kts 356°
2026-05-05 00:30 43.67136 7.22755 17 ft 0 kts 319°
2026-05-05 00:30 43.67137 7.22754 17 ft 0 kts 317°